Amsterdam, Netherlands

9:52 AM CET on February 09, 2016 (GMT +0100)
Schiphol

Weather History for EHAM - October, 2011

Change the Weather History Date:

Thursday, October 27, 2011

  Actual Average Record
Temperature  
Mean Temperature 52 °F -  
Max Temperature 59 °F 49 °F 68 °F (2005)
Min Temperature 45 °F 40 °F 28 °F (2003)
Degree Days  
Heating Degree Days 13    
Growing Degree Days 2 (Base 50)    
Moisture  
Dew Point 46 °F    
Average Humidity 80    
Maximum Humidity 88    
Minimum Humidity 63    
Precipitation  
Precipitation 0.00 in - - ()
Sea Level Pressure  
Sea Level Pressure 29.90 in    
Wind  
Wind Speed 11 mph ()    
Max Wind Speed 14 mph    
Max Gust Speed -    
Visibility 13.2 miles    
Events      
Averages and records for this station are not official NWS values.
T = Trace of Precipitation, MM = Missing Value Source: Averaged Metar Reports

Daily Weather History Graph

Daily Weather History Graph

Search for Another Location

Airport or City:

Trip Planner

Search our weather history database for the weather conditions in past years. The results will help you decide how hot, cold, wet, or windy it might be!

Date:

Astronomy

Oct. 27, 2011 Rise Set
Actual Time 8:26 AM CEST 6:22 PM CEST
Civil Twilight 7:51 AM CEST 6:57 PM CEST
Nautical Twilight 7:11 AM CEST 7:37 PM CEST
Astronomical Twilight 6:32 AM CEST 8:16 PM CEST
Moon 9:24 AM CEST (10/27) 6:21 PM CEST (10/27)
Length of Visible Light 11h 06m
Length of Day
9h 55m
New Moon, 1% of the Moon is Illuminated
Oct 27
New Moon
Nov 2
First Quarter
Nov 10
Full
Nov 18
Last Quarter
Nov 25
New

Hourly Weather History & Observations

Time (CEST) Temp. Windchill Dew Point Humidity Pressure Visibility Wind Dir Wind Speed Gust Speed Precip Events Conditions
12:25 AM 48.2 °F - 42.8 °F 82% 29.92 in - SE 11.5 mph - N/A   Clear
12:55 AM 46.4 °F 41.5 °F 42.8 °F 87% 29.92 in - SE 10.4 mph - N/A   Clear
1:25 AM 46.4 °F 41.1 °F 42.8 °F 87% 29.92 in - SE 11.5 mph - N/A   Clear
1:55 AM 46.4 °F 41.1 °F 42.8 °F 87% 29.92 in - SE 11.5 mph - N/A   Clear
2:00 AM 47 °F - 42 °F 78% 29.94 in 25 mi SE 11.2 mph - -  
2:25 AM 46.4 °F 40.7 °F 42.8 °F 87% 29.92 in - SE 12.7 mph - N/A   Clear
2:55 AM 46.4 °F 41.1 °F 42.8 °F 87% 29.92 in - SE 11.5 mph - N/A   Clear
3:25 AM 46.4 °F 41.1 °F 42.8 °F 87% 29.92 in - SE 11.5 mph - N/A   Clear
3:55 AM 46.4 °F 41.1 °F 42.8 °F 87% 29.92 in - SE 11.5 mph - N/A   Clear
4:25 AM 46.4 °F 41.5 °F 42.8 °F 87% 29.92 in - SE 10.4 mph - N/A   Clear
4:55 AM 48.2 °F - 42.8 °F 82% 29.92 in - SE 10.4 mph - N/A   Clear
5:00 AM 47 °F - 43 °F 79% 29.93 in 22 mi SE 11.2 mph - -   Overcast
5:25 AM 48.2 °F - 42.8 °F 82% 29.92 in - SE 9.2 mph - N/A   Clear
5:55 AM 46.4 °F 41.5 °F 42.8 °F 87% 29.92 in - ESE 10.4 mph - N/A   Clear
6:25 AM 46.4 °F 41.1 °F 42.8 °F 87% 29.92 in - ESE 11.5 mph - N/A   Clear
6:55 AM 46.4 °F 41.5 °F 42.8 °F 87% 29.89 in - ESE 10.4 mph - N/A   Clear
7:25 AM 46.4 °F 41.5 °F 42.8 °F 87% 29.89 in - ESE 10.4 mph - N/A   Clear
7:55 AM 46.4 °F 41.5 °F 42.8 °F 87% 29.89 in - ESE 10.4 mph - N/A   Clear
8:00 AM 47 °F - 42 °F 79% 29.91 in 25 mi ESE 8.9 mph - -   Overcast
8:25 AM 46.4 °F 40.7 °F 42.8 °F 87% 29.89 in - ESE 12.7 mph - N/A   Clear
8:55 AM 48.2 °F - 42.8 °F 82% 29.89 in - ESE 11.5 mph - N/A   Clear
9:25 AM 48.2 °F - 42.8 °F 82% 29.89 in - ESE 11.5 mph - N/A   Clear
9:55 AM 48.2 °F - 42.8 °F 82% 29.89 in - ESE 12.7 mph - N/A   Clear
10:25 AM 48.2 °F - 42.8 °F 82% 29.89 in - ESE 13.8 mph - N/A   Clear
10:55 AM 50.0 °F - 44.6 °F 82% 29.89 in - ESE 13.8 mph - N/A   Clear
11:00 AM 50 °F - 44 °F 74% 29.90 in 16 mi ESE 13.4 mph - -   Overcast
11:25 AM 51.8 °F - 44.6 °F 76% 29.89 in - SE 12.7 mph - N/A   Clear
11:55 AM 51.8 °F - 44.6 °F 76% 29.89 in - SE 12.7 mph - N/A   Clear
12:25 PM 53.6 °F - 46.4 °F 77% 29.89 in - ESE 13.8 mph - N/A   Clear
12:55 PM 55.4 °F - 46.4 °F 72% 29.89 in - SE 13.8 mph - N/A   Clear
1:25 PM 55.4 °F - 46.4 °F 72% 29.89 in - SE 11.5 mph - N/A   Clear
1:55 PM 55.4 °F - 46.4 °F 72% 29.86 in - ESE 12.7 mph - N/A   Clear
2:00 PM 56 °F - 47 °F 65% 29.88 in 16 mi ESE 13.4 mph - -   Mostly Cloudy
2:25 PM 59.0 °F - 48.2 °F 67% 29.86 in - ESE 12.7 mph - N/A   Clear
2:55 PM 59.0 °F - 48.2 °F 67% 29.86 in - SE 12.7 mph - N/A   Clear
3:25 PM 59.0 °F - 48.2 °F 67% 29.86 in - SE 11.5 mph - N/A   Clear
3:55 PM 59.0 °F - 48.2 °F 67% 29.86 in - ESE 11.5 mph - N/A   Clear
4:25 PM 59.0 °F - 48.2 °F 67% 29.86 in - ESE 12.7 mph - N/A   Clear
4:55 PM 59.0 °F - 50.0 °F 72% 29.86 in - SE 11.5 mph - N/A   Clear
5:00 PM 59 °F - 50 °F 63% 29.87 in 14 mi ESE 11.2 mph - -   Overcast
5:25 PM 59.0 °F - 50.0 °F 72% 29.86 in - SE 12.7 mph - N/A   Clear
5:55 PM 57.2 °F - 48.2 °F 72% 29.86 in - SE 10.4 mph - N/A   Clear
6:25 PM 55.4 °F - 48.2 °F 77% 29.86 in - SE 9.2 mph - N/A   Clear
6:55 PM 55.4 °F - 48.2 °F 77% 29.86 in - SE 10.4 mph - N/A   Clear
7:25 PM 53.6 °F - 48.2 °F 82% 29.86 in - SE 11.5 mph - N/A   Clear
7:55 PM 53.6 °F - 48.2 °F 82% 29.89 in - SE 10.4 mph - N/A   Clear
8:00 PM 54 °F - 49 °F 76% 29.90 in 11 mi SE 11.2 mph - -   Mostly Cloudy
8:25 PM 53.6 °F - 48.2 °F 82% 29.89 in - SE 9.2 mph - N/A   Clear
8:55 PM 53.6 °F - 48.2 °F 82% 29.89 in - SE 11.5 mph - N/A   Clear
9:25 PM 51.8 °F - 48.2 °F 88% 29.89 in - SE 11.5 mph - N/A   Clear
9:55 PM 51.8 °F - 48.2 °F 88% 29.92 in - SE 11.5 mph - N/A   Clear
10:25 PM 51.8 °F - 48.2 °F 88% 29.92 in - SSE 12.7 mph - N/A   Clear
10:55 PM 51.8 °F - 48.2 °F 88% 29.92 in - SE 11.5 mph - N/A   Clear
11:00 PM 52 °F - 48 °F 82% 29.94 in 9 mi SSE 11.2 mph - -   Overcast
11:25 PM 51.8 °F - 48.2 °F 88% 29.92 in - SSE 11.5 mph - N/A   Clear
11:55 PM 51.8 °F - 48.2 °F 88% 29.92 in - SSE 10.4 mph - N/A   Clear